Погода в Курске

Погода в Курске : погода сейчас, прогноз погоды и архив. Всё, что Вы хотите узнать о погоде в Курске!

Хотите узнать прогноз погоды в Курске? Тогда Вам сюда: Погода в Курске

Поиск расширенной информации на нашем сайте:

Другие новости

Новости СМИ2

Главная страница сайта

Новости сайта

03.07.2017

Напоминаем, что на нашем специализированном сайте Метеоцентр.Азия вы можете получить высокодетализированные автоматические прогнозы погоды по пунктам России, СНГ и мира в авиационном формате (включающие направление и скорость ветра, видимость, явления погоды, количество и форму облачности, нижнюю и верхнюю границу облачности).


Погода в Курске - сегодня

Время (UTC), дата Ветер
(°,м/с) 
Видим.   Явления Облачность Т
(°С)
Тd
(°С)
f(%) Тe
(°С)
Pmin
(гПа)
dP
(гПа)
Po
(мм)
O2
(г/м3)
Тmin Tmax R s Состояние
почвы
15 13.01.18 020 (С) 10 км  {ливн. осадки}  9/9 600 м 
[Sc]
-10.3 -13.1 80 -10  1043.9  0.2  758  319      0.0     
18 13.01.18 тихо ()   10 км  {ливн. осадки}  6/0 средняя 
[Ac trans]
-11.8 -13.8 85 -12  1043.9  -0.2  758  320    -7.8  0.0     
21 13.01.18 050 (СВ) 10 км    ясно 
-12.4 -13.9 89 -12  1043.7  -0.3  758  321           
00 14.01.18 020 (С) 10 км    3/0 верхняя 
[Ci fib]
-13.4 -14.9 88 -13  1043.4  -0.5  758  322           
03 14.01.18 040 (СВ) 4000 м  дымка  10/10 600 м 
[Sc]
-13.8 -15.5 87 -14  1042.6  -0.8  757  323  -14.1    0.0     
06 14.01.18 010 (С) 10 км    9/9 600 м 
[Sc]
-13 -14.8 86 -13  1042.5  757  322  -14.1      равномерный
сухой снег
100% 
09 14.01.18 080 (В) 10 км  {ливн. осадки}  8/8 600 м 
[Sc]
-11.2 -13.3 84 -13  1042.3  757  319           
12 14.01.18 040 (СВ) 10 км  {ливн. осадки}  8/8 600 м 
[Sc]
-10.3 -13.9 75 -10  1041.5  -0.6  756  318           
15 14.01.18 080 (В) 10 км    ясно 
-12.2 -14.8 81 -12  1041.3  -0.4  756  320      0.0     
18 14.01.18 040 (СВ) 10 км    ясно 
-13.6 -15.6 85 -14  1041.6  756  322    -10.3  0.0     
21 14.01.18 090 (В) 10 км    10/10 600 м 
[Sc]
-13.2 -15.2 85 -13  1041.1  -0.4  756  321           
00 15.01.18 090 (В) 4000 м  слаб. ливневой снег  10/10 600 м кучево-дожд. 
[Cb cap]
-12.1 -14.3 84 -12  1040.6  -0.3  756  320           
03 15.01.18 100 (В) 4000 м  слаб. ливневой снег  10/10 600 м кучево-дожд. 
[Cb cap]
-12.4 -14.9 82 -12  1039.7  -0.9  755  320  -13.9    0.0     
06 15.01.18 070 (В) 10 км  слаб. ливневой снег  10/10 600 м кучево-дожд. 
[Cb cap]
-12.8 -15.3 82 -13  1039.4  -0.3  755  320  -13.9    0.0  равномерный
сухой снег
100% 
09 15.01.18 070 (В) 10 км  {ливн. осадки}  9/9 600 м 
[Sc]
-12.7 -15.7 78 -13  1039.1  -0.3  754  320           
12 15.01.18 080 (В) 10 км  {ливн. осадки}  1/0 верхняя 
[Ci fib]
-10.8 -15.1 71 -11  1037.4  -1.4  753  317           
15 15.01.18 080 (В) 10 км    3/0 верхняя 
[Ci fib]
-13.1 -15.6 81 -13  1036.7  -1  753  320      0.0     
18 15.01.18 060 (СВ) 10 км    5/0 средняя, верхняя 
[Ac trans|Ci fib]
-14.2 -16.5 83 -16  1035.4  -1.4  752  321    -10.6  0.0     
21 15.01.18 060 (СВ) 10 км    9/0 верхняя 
[Ci fib]
-13 -15.2 84 -16  1033.9  -1.3  751  319           
00 16.01.18 080 (В) 4000 м  слаб. ливневой снег  10/10 600 м кучево-дожд. 
[Cb cap]
-10.9 -13.4 82 -13  1031.6  -2  749  316           
03 16.01.18 100 (В) 10 км  слаб. ливневой снег  10/10 600 м кучево-дожд. 
[Cb cap]
-10.4 -12.6 84 -13  1029.5  -1.9  748  314  -14.3    0.2     
06 16.01.18 100 (В) 4000 м  слаб. ливневой снег  10/10 600 м кучево-дожд. 
[Cb cap]
-9.5 -11.6 85 -12  1028.1  -1.2  747  313  -14.3    0.2  равномерный
сухой снег
100% 
09 16.01.18 120 (ЮВ) 4000 м  слаб. ливневой снег  10/10 600 м кучево-дожд. 
[Cb cap]
-8.1 -10.7 82 -11  1026.6  -1.2  746  311           
12 16.01.18 120 (ЮВ) 10 км  слаб. ливневой снег  9/9 600 м кучево-дожд. 
[Cb cap]
-6.9 -9.9 79 -10  1023.9  -2.5  744  309           
15 16.01.18 130 (ЮВ) 10 км  {ливн. осадки}  9/9 600 м 
[Sc]
-6.9 -9.3 83 -10  1022.6  -1.3  743  308      0.6     
Время (UTC), дата Ветер
(°,м/с) 
Видим.   Явления Облачность Т
(°С)
Тd
(°С)
f(%) Тe
(°С)
Pmin
(гПа)
dP
(гПа)
Po
(мм)
O2
(г/м3)
Тmin Tmax R s Состояние
почвы

Для получения пояснительной информации подведите курсор к названию столбца.

ПОГОДА в Курске - архив

Всё, что Вы хотите узнать о погоде в Курске - удобно и подробно!

Выберите нужную дату (начиная с 1 января 2015* года) и нажмите кнопку "Найти".
Будут отображены архивные сводки погоды по пункту Курск, начиная с указанной даты.


Отображать данные в формате CSV (для использования в таблицах Excel)


Внимание! Наш архив погоды предназначен исключительно для личного некоммерческого использования в познавательных целях. Если Вам необходимы официальные справки о состоянии погоды (для производственных, юридических, коммерческих и т.п. целей), обращайтесь в органы Росгидромета.

*Примечание: данная дата относится к архиву по метеостанциям СССР (Россия, СНГ, Балтия).
Архив по метеостанциям Зарубежной Европы и Азии (кроме Китая) хранится 10 дней, по другим регионам земного шара (Китай, Африка, Америка, Австралия, Океания) - 1 день.

Курск - район местоположения метеостанции


Название, широта, долгота, высота метеостанции:
Курск 51.8°ш. 36.2°д. 247 м над ур. моря [Российская Федерация]

Дополнительная информация

В oтличие oт бoльшинства пoгoдных сайтoв мы публикуем пoдрoбную метеoинфoрмацию в детальнoм прoфессиoнальнoм фoрмате.

Характеристики температуры и влажнoсти вoздуха измеряются на высoте 2 м в тени вдали oт зданий и деревьев.
Скoрoсть ветра измеряется на высoте 10 м (на урoвне рoста челoвека скoрoсть ветра ниже в 1.5-2 раза). Если метеoстанция нахoдится в гoрoде или в лесу, тo скoрoсть ветра занижена на 2-4 м/с пo сравнению с oткрытым местoм. Скoрoсть ветра над акватoриями крупных рек и oзёр, а также на вершинах хoлмoв на 2-5 м/с выше, чем в oбычных услoвиях.
Атмoсфернoе давление в разных тoчках местнoсти мoжет значительнo oтличаться oт давления на метеoстанции, в зависимoсти oт услoвий рельефа (при пoдъёме на 10 м давление пoнижается примернo на 1 мм рт.ст.).